Weather History for KGFK - October, 2012

Change the Weather History Date:

Thursday, October 18, 2012

  Actual Average Record
Temperature  
Mean Temperature 46 °F 42 °F  
Max Temperature 50 °F 54 °F 75 °F (1956)
Min Temperature 41 °F 31 °F 8 °F (1972)
Degree Days  
Heating Degree Days 19 23  
Month to date heating degree days 371 339  
Since 1 July heating degree days 652 690  
Cooling Degree Days 0 0  
Month to date cooling degree days 0 0  
Year to date cooling degree days 572 378  
Moisture  
Dew Point 44 °F    
Average Humidity 90    
Maximum Humidity 93    
Minimum Humidity 86    
Precipitation  
Precipitation 0.26 in 0.06 in 0.93 in (2007)
Month to date precipitation 1.66 1.24  
Year to date precipitation 15.44 18.52  
Snow  
Snow 0.00 in 0.00 in 1.00 in (2002)
Month to date snowfall 2.7 0.5  
Since 1 July snowfall 2.7 0.5  
Since 1 September snowfall 2.7 0.5  
Snow Depth 0.00 in    
Sea Level Pressure  
Sea Level Pressure 29.33 in    
Wind  
Wind Speed 26 mph (North)    
Max Wind Speed 41 mph    
Max Gust Speed 52 mph    
Visibility 7 miles    
Events Rain    
T = Trace of Precipitation, MM = Missing Value Source: NWS Daily Summary

Daily Weather History Graph

Daily Weather History Graph

Search for Another Location

Airport or City:

Trip Planner

Search our weather history database for the weather conditions in past years. The results will help you decide how hot, cold, wet, or windy it might be!

Date:

Astronomy

Oct. 18, 2012 Rise Set
Actual Time 7:53 AM CDT 6:33 PM CDT
Civil Twilight 7:21 AM CDT 7:04 PM CDT
Nautical Twilight 6:45 AM CDT 7:40 PM CDT
Astronomical Twilight 6:09 AM CDT 8:16 PM CDT
Moon 11:52 AM CDT (10/18) 8:52 PM CDT (10/18)
Length of Visible Light 11h 43m
Length of Day
10h 40m
Waxing Crescent, 14% of the Moon is Illuminated
Oct 18
Waxing Crescent
Oct 21
First Quarter
Oct 29
Full
Nov 6
Last Quarter
Nov 13
New

Hourly Weather History & Observations

Time (CDT) Temp. Windchill Dew Point Humidity Pressure Visibility Wind Dir Wind Speed Gust Speed Precip Events Conditions
12:53 AM 50.0 °F - 46.9 °F 89% 29.08 in 10.0 mi WNW 21.9 mph 25.3 mph 0.01 in Rain Light Rain
1:53 AM 48.9 °F - 46.9 °F 93% 29.09 in 5.0 mi NW 18.4 mph 25.3 mph 0.02 in   Overcast
2:18 AM 48.2 °F - 46.4 °F 93% 29.08 in 5.0 mi NW 17.3 mph 24.2 mph 0.01 in   Overcast
2:53 AM 48.9 °F - 46.9 °F 93% 29.10 in 4.0 mi NW 19.6 mph - 0.01 in Rain Light Rain
3:53 AM 48.0 °F - 46.9 °F 96% 29.11 in 5.0 mi NW 15.0 mph - 0.02 in   Overcast
4:53 AM 48.9 °F - 48.0 °F 97% 29.12 in 3.0 mi NNW 13.8 mph - 0.00 in Rain Light Rain
5:02 AM 50.0 °F - 48.2 °F 94% 29.11 in 2.5 mi NNW 12.7 mph - 0.00 in Rain Light Rain
5:23 AM 50.0 °F - 48.2 °F 94% 29.13 in 3.0 mi NE 13.8 mph - 0.01 in Rain Light Rain
5:26 AM 48.2 °F - 48.2 °F 100% 29.13 in 2.0 mi NE 13.8 mph - 0.01 in Rain Light Rain
5:33 AM 48.2 °F - 46.4 °F 93% 29.13 in 1.5 mi NE 15.0 mph - 0.01 in   Overcast
5:53 AM 48.0 °F - 46.9 °F 96% 29.16 in 10.0 mi NE 16.1 mph - 0.01 in   Overcast
6:53 AM 46.0 °F 39.3 °F 45.0 °F 96% 29.21 in 10.0 mi NE 16.1 mph 24.2 mph N/A   Overcast
7:53 AM 46.0 °F 40.6 °F 45.0 °F 96% 29.26 in 10.0 mi NNE 11.5 mph - N/A   Overcast
8:53 AM 46.9 °F - 44.1 °F 90% 29.30 in 10.0 mi North 16.1 mph - N/A   Overcast
10:02 AM 48.2 °F - 46.4 °F 93% 29.31 in 9.0 mi North 17.3 mph - N/A   Overcast
10:53 AM 50.0 °F - 48.0 °F 93% 29.34 in 10.0 mi NNW 19.6 mph - N/A   Overcast
11:29 AM 48.2 °F - 46.4 °F 93% 29.35 in 2.0 mi NNW 25.3 mph 32.2 mph N/A   Overcast
11:43 AM 46.4 °F 37.2 °F 46.4 °F 100% 29.35 in 10.0 mi NNW 29.9 mph 35.7 mph N/A   Overcast
11:53 AM 46.9 °F - 45.0 °F 93% 29.37 in 10.0 mi North 31.1 mph 38.0 mph 0.00 in Rain Light Rain
12:33 PM 46.4 °F 37.5 °F 44.6 °F 93% 29.36 in 7.0 mi NNW 27.6 mph 39.1 mph 0.01 in Rain Rain
12:53 PM 46.0 °F 36.5 °F 44.1 °F 93% 29.38 in 6.0 mi NNW 31.1 mph 40.3 mph 0.03 in Rain Rain
1:26 PM 46.4 °F 37.2 °F 44.6 °F 93% 29.37 in 9.0 mi NNW 29.9 mph 46.0 mph 0.04 in Rain Light Rain
1:43 PM 46.4 °F 37.4 °F 44.6 °F 93% 29.37 in 9.0 mi NNW 28.8 mph 44.9 mph 0.06 in Rain Light Rain
1:53 PM 46.0 °F 36.4 °F 44.1 °F 93% 29.39 in 8.0 mi North 32.2 mph 44.9 mph 0.06 in Rain Light Rain
2:53 PM 46.0 °F 35.9 °F 44.1 °F 93% 29.42 in 8.0 mi North 35.7 mph 44.9 mph 0.04 in Rain Light Rain
3:53 PM 46.0 °F 35.9 °F 43.0 °F 89% 29.45 in 10.0 mi North 35.7 mph 46.0 mph 0.01 in Rain Light Rain
4:53 PM 45.0 °F 34.7 °F 42.1 °F 90% 29.49 in 6.0 mi North 33.4 mph 46.0 mph 0.01 in Rain Light Rain
5:43 PM 44.6 °F 34.6 °F 41.0 °F 87% 29.50 in 6.0 mi North 31.1 mph 47.2 mph 0.02 in Rain Light Rain
5:53 PM 44.1 °F 33.2 °F 41.0 °F 89% 29.52 in 6.0 mi North 35.7 mph 46.0 mph 0.02 in Rain Light Rain
6:53 PM 43.0 °F 32.4 °F 39.9 °F 89% 29.56 in 10.0 mi NNW 31.1 mph 42.6 mph 0.00 in Rain Light Rain
7:53 PM 43.0 °F 31.4 °F 39.0 °F 86% 29.59 in 10.0 mi North 38.0 mph 48.3 mph 0.00 in   Overcast
8:53 PM 42.1 °F 30.3 °F 39.9 °F 92% 29.62 in 3.0 mi North 36.8 mph 46.0 mph 0.00 in Rain Light Rain
9:53 PM 42.1 °F 31.0 °F 39.9 °F 92% 29.64 in 5.0 mi North 32.2 mph 42.6 mph 0.03 in Rain Light Rain
10:53 PM 41.0 °F 29.8 °F 39.0 °F 93% 29.65 in 5.0 mi NNW 29.9 mph 41.4 mph 0.00 in Rain Light Rain
11:53 PM 42.1 °F 31.1 °F 39.0 °F 89% 29.68 in 10.0 mi North 31.1 mph 39.1 mph 0.00 in   Overcast